TimeCDT,TemperatureF,Dew PointF,Humidity,Sea Level PressureIn,VisibilityMPH,Wind Direction,Wind SpeedMPH,Gust SpeedMPH,PrecipitationIn,Events,Conditions,WindDirDegrees,DateUTC
12:15 AM,68.5,52.7,57,30.04,10.0,SSE,10.4,-,N/A,,Clear,160,2013-09-15 05:15:00
12:35 AM,69.1,53.1,57,30.04,10.0,South,6.9,-,N/A,,Clear,170,2013-09-15 05:35:00
12:55 AM,69.1,53.2,57,30.04,10.0,South,6.9,-,N/A,,Clear,170,2013-09-15 05:55:00
1:15 AM,68.4,53.6,59,30.04,10.0,South,6.9,-,N/A,,Clear,170,2013-09-15 06:15:00
1:35 AM,67.3,53.6,61,30.04,10.0,SSE,6.9,-,N/A,,Clear,160,2013-09-15 06:35:00
1:55 AM,66.2,52.9,62,30.04,10.0,South,4.6,-,N/A,,Clear,180,2013-09-15 06:55:00
2:15 AM,65.3,52.7,64,30.04,10.0,East,5.8,-,N/A,,Clear,100,2013-09-15 07:15:00
2:35 AM,63.9,52.9,67,30.04,10.0,SE,4.6,-,N/A,,Clear,130,2013-09-15 07:35:00
2:55 AM,64.4,52.9,66,30.04,10.0,South,3.5,-,N/A,,Clear,170,2013-09-15 07:55:00
3:15 AM,64.6,52.3,64,30.04,10.0,South,4.6,-,N/A,,Clear,180,2013-09-15 08:15:00
3:35 AM,64.0,52.3,66,30.04,10.0,South,4.6,-,N/A,,Clear,180,2013-09-15 08:35:00
3:55 AM,64.2,52.3,65,30.04,10.0,South,5.8,-,N/A,,Scattered Clouds,180,2013-09-15 08:55:00
4:15 AM,63.7,52.2,66,30.04,10.0,South,6.9,-,N/A,,Scattered Clouds,190,2013-09-15 09:15:00
4:35 AM,63.0,52.3,68,30.04,10.0,SSW,5.8,-,N/A,,Clear,200,2013-09-15 09:35:00
4:55 AM,63.7,52.7,67,30.04,10.0,SSW,8.1,-,N/A,,Clear,200,2013-09-15 09:55:00
5:15 AM,63.0,52.3,68,30.05,10.0,SSW,6.9,-,N/A,,Clear,200,2013-09-15 10:15:00
5:35 AM,63.7,52.5,67,30.05,10.0,SSW,8.1,-,N/A,,Clear,200,2013-09-15 10:35:00
5:55 AM,64.2,52.3,65,30.06,10.0,SSW,9.2,-,N/A,,Clear,200,2013-09-15 10:55:00
6:15 AM,64.9,52.3,64,30.07,10.0,SW,6.9,-,N/A,,Clear,220,2013-09-15 11:15:00
6:35 AM,64.2,52.2,65,30.07,10.0,SW,4.6,-,N/A,,Clear,230,2013-09-15 11:35:00
6:55 AM,62.8,51.6,67,30.07,10.0,SSW,3.5,-,N/A,,Clear,210,2013-09-15 11:55:00
7:15 AM,61.2,51.6,71,30.08,10.0,Calm,Calm,-,N/A,,Clear,0,2013-09-15 12:15:00
7:35 AM,60.8,52.0,73,30.09,10.0,Calm,Calm,-,N/A,,Clear,0,2013-09-15 12:35:00
7:55 AM,61.7,52.7,72,30.09,10.0,West,3.5,-,N/A,,Clear,270,2013-09-15 12:55:00
8:15 AM,62.4,52.7,70,30.10,10.0,Calm,Calm,-,N/A,,Clear,0,2013-09-15 13:15:00
8:35 AM,62.8,53.1,71,30.10,10.0,Calm,Calm,-,N/A,,Scattered Clouds,0,2013-09-15 13:35:00
8:55 AM,64.6,53.6,68,30.11,10.0,SSW,3.5,-,N/A,,Mostly Cloudy,200,2013-09-15 13:55:00
9:15 AM,66.6,53.1,62,30.12,10.0,South,4.6,-,N/A,,Mostly Cloudy,170,2013-09-15 14:15:00
9:35 AM,68.5,52.9,57,30.13,10.0,SSW,4.6,-,N/A,,Overcast,200,2013-09-15 14:35:00
9:55 AM,70.9,52.5,52,30.13,10.0,SW,5.8,-,N/A,,Overcast,230,2013-09-15 14:55:00
10:15 AM,72.5,51.3,47,30.14,10.0,SSW,9.2,-,N/A,,Overcast,210,2013-09-15 15:15:00
10:35 AM,76.8,50.5,40,30.14,10.0,SSW,11.5,-,N/A,,Mostly Cloudy,210,2013-09-15 15:35:00
10:55 AM,77.0,50.5,39,30.14,10.0,SSW,13.8,-,N/A,,Clear,200,2013-09-15 15:55:00
11:15 AM,78.1,50.9,39,30.14,10.0,SSW,11.5,18.4,N/A,,Clear,210,2013-09-15 16:15:00
11:35 AM,79.5,51.4,37,30.14,10.0,SSW,13.8,19.6,N/A,,Clear,200,2013-09-15 16:35:00
11:55 AM,79.7,51.8,38,30.14,10.0,SSW,15.0,19.6,N/A,,Clear,200,2013-09-15 16:55:00
12:15 PM,79.2,51.8,38,30.14,10.0,SSW,11.5,-,N/A,,Clear,200,2013-09-15 17:15:00
12:35 PM,79.9,51.4,37,30.14,10.0,SSW,13.8,18.4,N/A,,Clear,210,2013-09-15 17:35:00
12:55 PM,79.9,50.5,36,30.13,10.0,SSW,11.5,16.1,N/A,,Clear,200,2013-09-15 17:55:00
1:15 PM,80.8,51.6,36,30.13,10.0,SSW,11.5,18.4,N/A,,Clear,200,2013-09-15 18:15:00
1:35 PM,82.0,49.6,32,30.13,10.0,South,10.4,21.9,N/A,,Clear,190,2013-09-15 18:35:00
1:55 PM,82.2,50.5,33,30.13,10.0,SSW,12.7,17.3,N/A,,Clear,200,2013-09-15 18:55:00
2:15 PM,82.9,50.2,32,30.12,10.0,South,9.2,16.1,N/A,,Scattered Clouds,190,2013-09-15 19:15:00
2:35 PM,83.1,48.2,30,30.12,10.0,South,10.4,17.3,N/A,,Scattered Clouds,170,2013-09-15 19:35:00
2:55 PM,84.2,46.9,27,30.11,10.0,SSW,12.7,19.6,N/A,,Mostly Cloudy,210,2013-09-15 19:55:00
3:15 PM,85.3,46.8,26,30.10,10.0,SSW,10.4,17.3,N/A,,Scattered Clouds,200,2013-09-15 20:15:00
3:35 PM,83.8,48.7,29,30.10,10.0,South,10.4,-,N/A,,Scattered Clouds,190,2013-09-15 20:35:00
3:55 PM,83.7,49.5,30,30.09,10.0,SSE,9.2,-,N/A,,Mostly Cloudy,160,2013-09-15 20:55:00
4:15 PM,83.5,48.2,29,30.09,10.0,South,11.5,17.3,N/A,,Mostly Cloudy,180,2013-09-15 21:15:00
4:35 PM,84.0,48.2,29,30.09,10.0,South,10.4,-,N/A,,Mostly Cloudy,190,2013-09-15 21:35:00
4:55 PM,84.2,47.5,28,30.09,10.0,South,11.5,-,N/A,,Mostly Cloudy,170,2013-09-15 21:55:00
5:15 PM,84.4,45.5,26,30.09,10.0,South,12.7,17.3,N/A,,Mostly Cloudy,180,2013-09-15 22:15:00
5:35 PM,84.4,47.3,27,30.08,10.0,SE,3.5,-,N/A,,Scattered Clouds,140,2013-09-15 22:35:00
5:55 PM,85.6,46.4,25,30.08,10.0,SSE,11.5,18.4,N/A,,Scattered Clouds,160,2013-09-15 22:55:00
6:15 PM,85.6,46.4,25,30.08,10.0,South,11.5,-,N/A,,Scattered Clouds,180,2013-09-15 23:15:00
6:35 PM,85.5,46.6,26,30.08,10.0,South,13.8,-,N/A,,Scattered Clouds,180,2013-09-15 23:35:00
6:55 PM,85.1,45.1,25,30.09,10.0,South,12.7,-,N/A,,Clear,180,2013-09-15 23:55:00
7:15 PM,84.2,44.8,25,30.09,10.0,South,10.4,-,N/A,,Scattered Clouds,180,2013-09-16 00:15:00
7:35 PM,83.3,45.1,26,30.10,10.0,South,9.2,-,N/A,,Mostly Cloudy,180,2013-09-16 00:35:00
7:55 PM,82.0,46.0,28,30.10,10.0,South,8.1,-,N/A,,Overcast,170,2013-09-16 00:55:00
8:15 PM,81.1,46.8,30,30.10,10.0,South,10.4,-,N/A,,Mostly Cloudy,170,2013-09-16 01:15:00
8:35 PM,79.3,46.8,32,30.10,10.0,SSE,8.1,-,N/A,,Mostly Cloudy,160,2013-09-16 01:35:00
8:55 PM,77.2,47.1,35,30.11,10.0,South,5.8,-,N/A,,Mostly Cloudy,190,2013-09-16 01:55:00
9:15 PM,75.2,47.5,37,30.13,10.0,South,5.8,-,N/A,,Mostly Cloudy,170,2013-09-16 02:15:00
9:35 PM,75.2,47.8,38,30.13,10.0,South,4.6,-,N/A,,Overcast,180,2013-09-16 02:35:00
9:55 PM,75.7,50.2,41,30.14,10.0,SSE,6.9,-,N/A,,Overcast,160,2013-09-16 02:55:00
10:15 PM,76.8,54.1,45,30.15,10.0,SE,6.9,-,N/A,,Overcast,140,2013-09-16 03:15:00
10:35 PM,76.5,55.0,47,30.15,10.0,SE,8.1,-,N/A,,Overcast,140,2013-09-16 03:35:00
10:55 PM,76.1,54.1,46,30.15,10.0,SE,10.4,-,N/A,,Overcast,140,2013-09-16 03:55:00
11:15 PM,74.3,55.4,52,30.17,10.0,SSW,6.9,-,N/A,,Overcast,200,2013-09-16 04:15:00
11:35 PM,72.5,56.3,57,30.18,10.0,NW,13.8,18.4,N/A,,Overcast,310,2013-09-16 04:35:00
11:55 PM,69.8,59.4,69,30.19,10.0,NW,18.4,24.2,N/A,Thunderstorm,Thunderstorm,320,2013-09-16 04:55:00